Windom, MN

8:57 PM CST on December 11, 2017 (GMT -0600)
Windom Municipal

Weather History for KMWM - June, 2013

Change the Weather History Date:

Friday, June 28, 2013

  Actual Average Record
Temperature  
Mean Temperature 72 °F -  
Max Temperature 80 °F 83 °F 98 °F (1970)
Min Temperature 64 °F 59 °F 35 °F (2002)
Cooling Degree Days 7    
Growing Degree Days 22 (Base 50)    
Moisture  
Dew Point 54 °F    
Average Humidity 51    
Maximum Humidity 73    
Minimum Humidity 34    
Precipitation  
Precipitation 0.00 in - - ()
Sea Level Pressure  
Sea Level Pressure 29.90 in    
Wind  
Wind Speed 15 mph (NW)    
Max Wind Speed 33 mph    
Max Gust Speed 41 mph    
Visibility 10 miles    
Events      
Averages and records for this station are not official NWS values.
T = Trace of Precipitation, MM = Missing Value Source: NWS Daily Summary

Daily Weather History Graph

Daily Weather History Graph

Search for Another Location

Airport or City:

Trip Planner

Search our weather history database for the weather conditions in past years. The results will help you decide how hot, cold, wet, or windy it might be!

Date:

Astronomy

Jun. 28, 2013 Rise Set
Actual Time 5:40 AM CDT 9:07 PM CDT
Civil Twilight 5:04 AM CDT 9:43 PM CDT
Nautical Twilight 4:16 AM CDT 10:30 PM CDT
Astronomical Twilight 3:16 AM CDT 11:30 PM CDT
Moon No Moon Rise 12:02 PM CDT (6/28)
Length of Visible Light 16h 38m
Length of Day
15h 26m
Waning Gibbous, 66% of the Moon is Illuminated
Jun 28
Waning Gibbous
Jun 29
Last Quarter
Jul 8
New
Jul 15
First Quarter
Jul 22
Full

Hourly Weather History & Observations

Time (CDT) Temp. Heat Index Dew Point Humidity Pressure Visibility Wind Dir Wind Speed Gust Speed Precip Events Conditions
12:12 AM 71.6 °F - 53.6 °F 53% 29.91 in 10.0 mi West 6.9 mph - N/A   Clear
12:33 AM 69.8 °F - 55.4 °F 60% 29.91 in 10.0 mi WNW 8.1 mph - N/A   Clear
12:52 AM 69.8 °F - 55.4 °F 60% 29.92 in 10.0 mi WNW 8.1 mph - N/A   Clear
1:12 AM 69.8 °F - 53.6 °F 56% 29.93 in 10.0 mi NW 9.2 mph - N/A   Clear
1:33 AM 69.8 °F - 53.6 °F 56% 29.93 in 10.0 mi NW 9.2 mph - N/A   Clear
1:52 AM 69.8 °F - 53.6 °F 56% 29.94 in 10.0 mi WNW 9.2 mph - N/A   Clear
2:12 AM 68.0 °F - 55.4 °F 64% 29.94 in 10.0 mi WNW 6.9 mph - N/A   Clear
2:33 AM 66.2 °F - 55.4 °F 68% 29.94 in 10.0 mi West 6.9 mph - N/A   Clear
2:52 AM 64.4 °F - 55.4 °F 73% 29.94 in 10.0 mi West 6.9 mph - N/A   Clear
3:12 AM 64.4 °F - 55.4 °F 73% 29.94 in 10.0 mi West 8.1 mph - N/A   Clear
3:33 AM 64.4 °F - 55.4 °F 73% 29.94 in 10.0 mi West 8.1 mph - N/A   Clear
3:52 AM 64.4 °F - 55.4 °F 73% 29.93 in 10.0 mi West 6.9 mph - N/A   Clear
4:12 AM 64.4 °F - 55.4 °F 73% 29.93 in 10.0 mi West 8.1 mph - N/A   Clear
4:33 AM 64.4 °F - 55.4 °F 73% 29.93 in 10.0 mi West 8.1 mph - N/A   Clear
4:52 AM 64.4 °F - 55.4 °F 73% 29.93 in 10.0 mi West 10.4 mph - N/A   Clear
5:12 AM 64.4 °F - 55.4 °F 73% 29.93 in 10.0 mi WNW 12.7 mph - N/A   Clear
5:33 AM 66.2 °F - 55.4 °F 68% 29.92 in 10.0 mi WNW 12.7 mph - N/A   Clear
5:52 AM 66.2 °F - 55.4 °F 68% 29.92 in 10.0 mi WNW 12.7 mph - N/A   Clear
6:12 AM 66.2 °F - 53.6 °F 64% 29.93 in 10.0 mi West 11.5 mph - N/A   Clear
6:33 AM 66.2 °F - 55.4 °F 68% 29.93 in 10.0 mi West 11.5 mph - N/A   Clear
6:52 AM 68.0 °F - 55.4 °F 64% 29.93 in 10.0 mi West 11.5 mph 17.3 mph N/A   Clear
7:12 AM 69.8 °F - 55.4 °F 60% 29.92 in 10.0 mi WNW 13.8 mph 19.6 mph N/A   Clear
7:32 AM 71.6 °F - 55.4 °F 57% 29.92 in 10.0 mi WNW 13.8 mph - N/A   Clear
7:52 AM 71.6 °F - 55.4 °F 57% 29.92 in 10.0 mi WNW 17.3 mph 24.2 mph N/A   Clear
8:13 AM 73.4 °F - 53.6 °F 50% 29.91 in 10.0 mi WNW 18.4 mph 27.6 mph N/A   Clear
8:32 AM 73.4 °F - 53.6 °F 50% 29.91 in 10.0 mi NW 21.9 mph 31.1 mph N/A   Clear
8:52 AM 75.2 °F - 53.6 °F 47% 29.91 in 10.0 mi NW 20.7 mph 32.2 mph N/A   Clear
9:13 AM 75.2 °F - 53.6 °F 47% 29.91 in 10.0 mi NW 21.9 mph 34.5 mph N/A   Clear
9:32 AM 75.2 °F - 53.6 °F 47% 29.90 in 10.0 mi NW 27.6 mph 35.7 mph N/A   Clear
9:52 AM 75.2 °F - 53.6 °F 47% 29.90 in 10.0 mi NW 26.5 mph 34.5 mph N/A   Clear
10:13 AM 77.0 °F - 53.6 °F 44% 29.90 in 10.0 mi NW 28.8 mph 39.1 mph N/A   Clear
10:32 AM 78.8 °F - 51.8 °F 39% 29.89 in 10.0 mi NW 32.2 mph 39.1 mph N/A   Clear
10:52 AM 78.8 °F - 53.6 °F 42% 29.89 in 10.0 mi NW 31.1 mph 38.0 mph N/A   Clear
11:13 AM 78.8 °F - 51.8 °F 39% 29.90 in 10.0 mi NW 32.2 mph 39.1 mph N/A   Scattered Clouds
11:32 AM 78.8 °F - 53.6 °F 42% 29.90 in 10.0 mi NW 29.9 mph 38.0 mph N/A   Scattered Clouds
11:52 AM 78.8 °F - 53.6 °F 42% 29.90 in 10.0 mi NW 25.3 mph 33.4 mph N/A   Scattered Clouds
12:13 PM 78.8 °F - 53.6 °F 42% 29.90 in 10.0 mi WNW 25.3 mph 35.7 mph N/A   Scattered Clouds
12:32 PM 78.8 °F - 53.6 °F 42% 29.90 in 10.0 mi NW 27.6 mph 38.0 mph N/A   Mostly Cloudy
12:52 PM 78.8 °F - 53.6 °F 42% 29.90 in 10.0 mi NW 31.1 mph 36.8 mph N/A   Scattered Clouds
1:13 PM 80.6 °F 80.3 °F 53.6 °F 39% 29.89 in 10.0 mi NW 33.4 mph 40.3 mph N/A   Scattered Clouds
1:32 PM 80.6 °F 80.3 °F 53.6 °F 39% 29.89 in 10.0 mi NW 29.9 mph 40.3 mph N/A   Scattered Clouds
1:53 PM 80.6 °F - 51.8 °F 37% 29.89 in 10.0 mi WNW 28.8 mph 41.4 mph N/A   Scattered Clouds
2:13 PM 80.6 °F 80.3 °F 53.6 °F 39% 29.88 in 10.0 mi NW 28.8 mph 36.8 mph N/A   Scattered Clouds
2:32 PM 80.6 °F 80.3 °F 53.6 °F 39% 29.88 in 10.0 mi NW 26.5 mph 36.8 mph N/A   Scattered Clouds
2:52 PM 80.6 °F 80.5 °F 55.4 °F 42% 29.88 in 10.0 mi NW 26.5 mph 32.2 mph N/A   Mostly Cloudy
3:13 PM 80.6 °F 80.5 °F 55.4 °F 42% 29.88 in 10.0 mi NW 27.6 mph 32.2 mph N/A   Mostly Cloudy
3:32 PM 80.6 °F 80.3 °F 53.6 °F 39% 29.88 in 10.0 mi NNW 29.9 mph 38.0 mph N/A   Scattered Clouds
3:51 PM 80.6 °F 80.3 °F 53.6 °F 39% 29.89 in 10.0 mi North - - N/A   Scattered Clouds
4:13 PM 80.6 °F 80.3 °F 53.6 °F 39% 29.89 in 10.0 mi Calm Calm - N/A   Scattered Clouds
4:32 PM 80.6 °F 80.3 °F 53.6 °F 39% 29.88 in 10.0 mi NW 31.1 mph 38.0 mph N/A   Clear
4:52 PM 80.6 °F - 51.8 °F 37% 29.88 in 10.0 mi NNW 32.2 mph 39.1 mph N/A   Clear
5:13 PM 80.6 °F - 51.8 °F 37% 29.88 in 10.0 mi NW 28.8 mph 35.7 mph N/A   Scattered Clouds
5:32 PM 80.6 °F - 50.0 °F 34% 29.88 in 10.0 mi NW 29.9 mph 41.4 mph N/A   Scattered Clouds
5:52 PM 80.6 °F - 51.8 °F 37% 29.87 in 10.0 mi Calm Calm 41.4 mph N/A   Clear
6:13 PM 80.6 °F - 51.8 °F 37% 29.87 in 10.0 mi NNW 32.2 mph 39.1 mph N/A   Clear
6:32 PM 78.8 °F - 53.6 °F 42% 29.87 in 10.0 mi NNW 27.6 mph 34.5 mph N/A   Clear
6:52 PM 78.8 °F - 53.6 °F 42% 29.87 in 10.0 mi NNW 29.9 mph 36.8 mph N/A   Clear
7:12 PM 78.8 °F - 53.6 °F 42% 29.87 in 10.0 mi NNW 26.5 mph 33.4 mph N/A   Scattered Clouds
7:32 PM 78.8 °F - 53.6 °F 42% 29.87 in 10.0 mi NW 18.4 mph 34.5 mph N/A   Scattered Clouds
7:53 PM 78.8 °F - 51.8 °F 39% 29.87 in 10.0 mi NW 18.4 mph 32.2 mph N/A   Clear
8:12 PM 77.0 °F - 51.8 °F 41% 29.87 in 10.0 mi NW 20.7 mph 29.9 mph N/A   Clear
8:32 PM 75.2 °F - 53.6 °F 47% 29.87 in 10.0 mi NW 21.9 mph 29.9 mph N/A   Clear
8:53 PM 75.2 °F - 53.6 °F 47% 29.88 in 10.0 mi NW 18.4 mph 24.2 mph N/A   Clear
9:12 PM 73.4 °F - 53.6 °F 50% 29.88 in 10.0 mi NW 16.1 mph - N/A   Clear
9:32 PM 73.4 °F - 55.4 °F 53% 29.88 in 10.0 mi NW 15.0 mph - N/A   Clear
9:53 PM 71.6 °F - 55.4 °F 57% 29.88 in 10.0 mi NW 11.5 mph - N/A   Clear
10:12 PM 71.6 °F - 55.4 °F 57% 29.88 in 10.0 mi NW 11.5 mph - N/A   Clear
10:32 PM 71.6 °F - 55.4 °F 57% 29.87 in 10.0 mi NW 11.5 mph - N/A   Clear
10:53 PM 71.6 °F - 55.4 °F 57% 29.87 in 10.0 mi NW 10.4 mph - N/A   Clear
11:12 PM 69.8 °F - 55.4 °F 60% 29.87 in 10.0 mi NW 11.5 mph - N/A   Clear
11:32 PM 69.8 °F - 55.4 °F 60% 29.87 in 10.0 mi NW 12.7 mph - N/A   Clear
11:53 PM 69.8 °F - 55.4 °F 60% 29.87 in 10.0 mi NW 11.5 mph - N/A   Clear